Flight Track Log - Related Links

Times and Time Zones

All times are in EDT time to prevent confusion due to time zone crossing. See the SWA1130 flight status page for this flight to view local times or setup timezone preferences in your user account.

Time Position Orientation Groundspeed Altitude Reporting Facility
EDT Latitude Longitude Course Direction KTS MPH feet Rate Location/Type
Sat 12:20:05 PM 32.8000 -96.7833 128° Southeast 228 262 3,500  Level Dallas / Fort Worth TRACON
Sat 12:21:05 PM 32.7500 -96.7667 164° South 255 293 6,100 2,750 Climbing Dallas / Fort Worth TRACON
Sat 12:22:05 PM 32.6667 -96.8167 207° Southwest 302 348 9,000 2,497 Climbing Dallas / Fort Worth TRACON
Sat 12:23:46 PM 32.6258 -96.9792 253° West 313 360 12,800 2,385 Climbing Fort Worth Center
Sat 12:24:46 PM 32.6700 -97.0753 299° West 302 348 15,400 2,700 Climbing Fort Worth Center
Sat 12:25:46 PM 32.7206 -97.1814 300° West 340 391 18,200 2,500 Climbing Fort Worth Center
Sat 12:26:46 PM 32.7686 -97.2850 299° West 363 418 20,400 2,050 Climbing Fort Worth Center
Sat 12:27:46 PM 32.8208 -97.3936 300° West 377 434 22,300 1,900 Climbing Fort Worth Center
Sat 12:28:46 PM 32.8772 -97.5147 299° West 392 451 24,200 1,650 Climbing Fort Worth Center
Sat 12:29:46 PM 32.9272 -97.6214 299° West 406 467 25,600 1,600 Climbing Fort Worth Center
Sat 12:30:46 PM 32.9622 -97.7525 288° West 411 473 27,400 1,600 Climbing Fort Worth Center
Sat 12:31:46 PM 32.9847 -97.8914 281° West 416 479 28,800 1,450 Climbing Fort Worth Center
Sat 12:32:46 PM 33.0156 -98.0328 285° West 434 499 30,300 1,750 Climbing Fort Worth Center
Sat 12:33:46 PM 33.0419 -98.1767 282° West 446 513 32,300 2,150 Climbing Fort Worth Center
Sat 12:34:46 PM 33.0661 -98.3108 282° West 441 507 34,600 1,700 Climbing Fort Worth Center
Sat 12:35:46 PM 33.0900 -98.4425 282° West 420 483 35,700 700 Climbing Fort Worth Center
Sat 12:36:46 PM 33.1158 -98.5842 282° West 409 471 36,000 150 Climbing Fort Worth Center
Sat 12:37:46 PM 33.1417 -98.7183 283° West 409 471 36,000  Level Fort Worth Center
Sat 12:38:46 PM 33.1653 -98.8578 281° West 415 478 36,000  Level Fort Worth Center
Sat 12:39:46 PM 33.1928 -98.9947 284° West 415 478 36,000  Level Fort Worth Center
Sat 12:40:46 PM 33.2161 -99.1317 282° West 420 483 36,000  Level Fort Worth Center
Sat 12:41:46 PM 33.2411 -99.2714 282° West 420 483 36,000  Level Fort Worth Center
Sat 12:42:46 PM 33.2661 -99.4083 282° West 425 489 36,000  Level Fort Worth Center
Sat 12:43:46 PM 33.2889 -99.5456 281° West 425 489 36,000  Level Fort Worth Center
Sat 12:44:46 PM 33.3136 -99.6831 282° West 425 489 36,000  Level Fort Worth Center
Sat 12:45:46 PM 33.3383 -99.8203 282° West 425 489 36,000 -750 Level Fort Worth Center
Sat 12:46:46 PM 33.3606 -99.9578 281° West 431 496 34,500 -2,350 Descending Fort Worth Center
Sat 12:47:46 PM 33.3847 -100.0978 282° West 431 496 31,300 -2,950 Descending Fort Worth Center
Sat 12:48:46 PM 33.4069 -100.2328 281° West 431 496 28,600 -2,300 Descending Fort Worth Center
Sat 12:49:46 PM 33.4311 -100.3656 282° West 421 484 26,700 -1,400 Descending Fort Worth Center
Sat 12:50:46 PM 33.4528 -100.5031 281° West 421 484 25,800 -1,700 Descending Fort Worth Center
Sat 12:51:46 PM 33.4744 -100.6383 281° West 416 479 23,300 -2,500 Descending Fort Worth Center
Sat 12:52:22 PM 33.4828 -100.7208 277° West 416 479 21,800 -2,452 Descending Fort Worth Center
Sat 12:53:41 PM 33.5136 -100.8839 283° West 388 447 18,600 -2,504 Descending Fort Worth Center
Sat 12:54:41 PM 33.5392 -101.0144 283° West 376 433 16,000 -2,083 Descending Fort Worth Center
Sat 12:55:42 PM 33.5694 -101.1278 288° West 356 410 14,400 -1,869 Descending Fort Worth Center
Sat 12:56:43 PM 33.5953 -101.2386 286° West 336 387 12,200 -2,033 Descending Fort Worth Center
Sat 12:57:43 PM 33.6211 -101.3422 287° West 330 380 10,300 -1,488 Descending Fort Worth Center
Sat 12:58:44 PM 33.6411 -101.4403 284° West 296 341 9,200 -1,140 Descending Fort Worth Center
Sat 12:59:44 PM 33.6653 -101.5336 287° West 284 327 8,000 -1,230 Descending Fort Worth Center
Sat 01:00:46 PM 33.6872 -101.6222 287° West 292 336 6,700 -984 Descending Fort Worth Center
Sat 01:01:46 PM 33.7111 -101.7206 286° West 292 336 6,000 -550 Descending Fort Worth Center
Sat 01:02:46 PM 33.7275 -101.7864 287° West 231 266 5,600 -950 Descending Fort Worth Center
Sat 01:03:46 PM 33.7197 -101.8258 257° West 131 151 4,100 -1,100 Descending Fort Worth Center
Sat 01:04:46 PM 33.6800 -101.8314 187° South 117 135 3,400 -400 Descending Fort Worth Center
Sat 01:05:46 PM 33.6544 -101.8450 204° Southwest 117 135 3,300 10,300 Descending Fort Worth Center
Sat 01:06:46 PM 33.6228 -101.8561 196° South 117 135 24,000 20,700 Climbing Fort Worth Center

Login

Don't have an account? Register now (free) for customized features, flight alerts, and more!